This is the latest recevied weather packets stored in our database for station/object WB4ZUT. If no packets are shown the sender has not sent any weather packets the latest 10 day(s).
| Time | Temp. | Humidity | Pressure | Rain* | Wind** | Luminosity | Snow |
|---|---|---|---|---|---|---|---|
| 1777492965 | 20° C | 60% | 1014.5 hPa | 0 mm | - | 383 W/m² | - |
| 1777492663 | 20° C | 60% | 1014.2 hPa | 0 mm | - | 798 W/m² | - |
| 1777492362 | 19.44° C | 61% | 1014.4 hPa | 0 mm | - | 780 W/m² | - |
| 1777492059 | 20° C | 59% | 1014.1 hPa | 0 mm | - | 252 W/m² | - |
| 1777491756 | 20° C | 61% | 1014.2 hPa | 0 mm | - | 674 W/m² | - |
| 1777491453 | 20.56° C | 61% | 1014.1 hPa | 0 mm | - | 724 W/m² | - |
| 1777491150 | 20° C | 62% | 1014.3 hPa | 0 mm | - | 807 W/m² | - |
| 1777490846 | 20° C | 63% | 1014.2 hPa | 0 mm | - | 796 W/m² | - |
| 1777490542 | 19.44° C | 63% | 1014.3 hPa | 0 mm | - | 294 W/m² | - |
| 1777490239 | 19.44° C | 64% | 1014.3 hPa | 0 mm | - | 806 W/m² | - |
| 1777489937 | 18.89° C | 67% | 1014.1 hPa | 0 mm | - | 257 W/m² | - |
| 1777489634 | 19.44° C | 64% | 1014.2 hPa | 0 mm | - | 202 W/m² | - |
| 1777489330 | 19.44° C | 65% | 1014.2 hPa | 0 mm | - | 314 W/m² | - |
| 1777489028 | 18.89° C | 65% | 1014 hPa | 0 mm | - | 208 W/m² | - |
| 1777488724 | 19.44° C | 65% | 1014 hPa | 0 mm | - | 261 W/m² | - |
| 1777488422 | 19.44° C | 65% | 1014.2 hPa | 0 mm | - | 292 W/m² | - |
| 1777488120 | 20° C | 65% | 1014.1 hPa | 0 mm | - | 163 W/m² | - |
| 1777487818 | 19.44° C | 64% | 1014.1 hPa | 0 mm | - | 716 W/m² | - |
| 1777487516 | 18.89° C | 66% | 1014 hPa | 0 mm | - | 795 W/m² | - |
| 1777487212 | 20° C | 65% | 1013.9 hPa | 0 mm | - | 237 W/m² | - |
| 1777486909 | 19.44° C | 65% | 1014 hPa | 0 mm | - | 824 W/m² | - |
| 1777486605 | 19.44° C | 67% | 1013.9 hPa | 0 mm | - | 927 W/m² | - |
| 1777486303 | 20° C | 67% | 1013.8 hPa | 0 mm | - | 940 W/m² | - |
| 1777486000 | 19.44° C | 68% | 1014 hPa | 0 mm | - | 359 W/m² | - |
| 1777485697 | 19.44° C | 69% | 1014 hPa | 0 mm | - | 827 W/m² | - |
* Rain latest hour (hover to see other rain measurements)
** Current wind speed in m/s (hover to see current wind gust speed)